Regional Weather Roundup
Issued by NWS Sioux Falls, SD

Home | Current Version | Previous Version | Text Only | Print | Product List | Glossary Off
Versions: 1 2 3 4 5 6 7 8 9 10 11 12 13 14 15 16 17 18 19 20 21 22 23 24 25 26 27 28 29 30 31 32 33 34 35 36 37 38 39 40 41 42 43 44 45 46 47 48 49 50

000
ASUS43 KFSD 041902
RWRFSD

WEATHER ROUNDUP FOR SE SOUTH DAKOTA/SW MINNESOTA/NW IOWA
NATIONAL WEATHER SERVICE SIOUX FALLS SD
200 PM CDT SAT JUL 04 2015

NOTE: "FAIR" INDICATES FEW OR NO CLOUDS BELOW 12,000 FEET WITH NO
SIGNIFICANT WEATHER AND OR OBSTRUCTIONS TO VISIBILITY.


SDZ038>040-050-052>070-042000-
SOUTHEAST SOUTH DAKOTA

CITY           SKY/WX    TMP DP  RH WIND       PRES   REMARKS
BROOKINGS      MOSUNNY   79  64  61 S15       29.93F
CHAMBERLAIN    NOT AVBL
HURON          SUNNY     83  68  60 S15G22    29.84F
MADISON        FAIR      81  66  61 S14G23    29.93S
MITCHELL       MOSUNNY   84  66  54 S15       29.88F
SIOUX FALLS    PTSUNNY   80  66  62 S10       29.93F
WINNER         FAIR      90  60  36 SE15G23   29.84F
YANKTON        PTSUNNY   81  64  57 S17       29.91S
$$

MNZ071-072-080-081-089-090-097-098-042000-
SOUTHWEST MINNESOTA

CITY           SKY/WX    TMP DP  RH WIND       PRES   REMARKS
FAIRMONT       SUNNY     79  59  50 S10       29.97S
JACKSON        MOSUNNY   81  63  54 S10       29.98S
LUVERNE        MOSUNNY   81  63  54 S10       29.97R
MARSHALL       SUNNY     81  63  54 SW13        N/A
MONTEVIDEO     MOSUNNY   84  66  54 SW5       29.91F
PIPESTONE      MOSUNNY   79  63  57 SW10      29.95F
REDWOOD FALLS  SUNNY     84  64  50 SW9       29.92F
TRACY          SUNNY     81  65  59 S9        29.95S
WINDOM         MOSUNNY   81  63  54 S8        29.97R
WORTHINGTON    MOSUNNY   79  61  53 S14       29.97S
$$

IAZ001>003-012>014-020>022-031-032-NEZ013-014-SDZ071-042000-
NORTHWEST IOWA

CITY           SKY/WX    TMP DP  RH WIND       PRES   REMARKS
DENISON        MOSUNNY   79  61  53 S8        29.97F
ESTHERVILLE    MOSUNNY   78  63  59 S9        29.97F
SIOUX CITY     MOSUNNY   81  64  56 SW9       29.96S
SPENCER        MOSUNNY   81  62  52 S9        29.98S
$$

ABBREVIATIONS USED IN REMARKS
   TC - TEMPERATURE IN CELSIUS
  WCI - WIND CHILL INDEX
   HX - HEAT INDEX
  VSB - VISIBILITY




USA.gov is the U.S. government's official web portal to all federal, state and local government web resources and services.